Terminal Aerodrome Forecast
Issued by NWS

Home | Current Version | Previous Version | Text Only | Print | Product List | Glossary Off
Versions: 1 2 3 4 5 6 7 8 9 10 11 12 13

334
FTUS42 KMHX 200544
TAFISO
TAF
KISO 200544Z 2006/2106 00000KT P6SM SKC
     FM200800 00000KT 5SM BR FEW003
      TEMPO 2010/2012 3SM BR FEW003
     FM201230 VRB03KT P6SM FEW003
     FM201800 VRB04KT P6SM FEW045
      AMD LTD TO CLD VIS AND WIND=

USA.gov is the U.S. government's official web portal to all federal, state and local government web resources and services.